Weather History for Jefferson, NC

Change the Weather History Date:

Saturday, October 12, 2013

  Actual Average Record
Temperature  
Mean Temperature 59 °F -  
Max Temperature 63 °F 65 °F 80 °F (1969)
Min Temperature 55 °F 42 °F 30 °F (1976)
Degree Days  
Heating Degree Days 6    
Growing Degree Days 9 (Base 50)    
Moisture  
Dew Point 53 °F    
Average Humidity 80    
Maximum Humidity 91    
Minimum Humidity 67    
Precipitation  
Precipitation 0.00 in - - ()
Sea Level Pressure  
Sea Level Pressure 30.12 in    
Wind  
Wind Speed 2 mph (NW)    
Max Wind Speed 6 mph    
Max Gust Speed -    
Visibility 10 miles    
Events      
Averages and records for this station are not official NWS values.
T = Trace of Precipitation, MM = Missing Value Source: NWS Daily Summary

Daily Weather History Graph

Daily Weather History Graph

Search for Another Location

Airport:

Trip Planner

Search our weather history database for the weather conditions in past years. The results will help you decide how hot, cold, wet, or windy it might be!

Date:

Astronomy

Oct. 12, 2013 Rise Set
Actual Time 7:30 AM EDT 6:53 PM EDT
Civil Twilight 7:04 AM EDT 7:19 PM EDT
Nautical Twilight 6:34 AM EDT 7:48 PM EDT
Astronomical Twilight 6:04 AM EDT 8:18 PM EDT
Moon 2:52 PM EDT (10/12) 12:42 AM EDT (10/12)
Length of Visible Light 12h 14m
Length of Day
11h 22m
First Quarter, 58% of the Moon is Illuminated
Oct 12
First Quarter
Oct 18
Full
Oct 26
Last Quarter
Nov 3
New
Nov 10
First Quarter

Hourly Weather History & Observations

Time (EDT) Temp. Dew Point Humidity Pressure Visibility Wind Dir Wind Speed Gust Speed Precip Events Conditions
12:15 AM 59.0 °F 48.2 °F 67% 30.07 in 10.0 mi NW 4.6 mph - N/A   Overcast
12:35 AM 58.5 °F 48.7 °F 70% 30.07 in 10.0 mi NW 3.5 mph - N/A   Overcast
12:55 AM 58.1 °F 49.5 °F 73% 30.07 in 10.0 mi NNW 4.6 mph - N/A   Overcast
1:15 AM 57.4 °F 49.6 °F 75% 30.07 in 10.0 mi Calm Calm - N/A   Overcast
1:35 AM 57.6 °F 50.2 °F 76% 30.07 in 10.0 mi Calm Calm - N/A   Overcast
1:55 AM 57.6 °F 50.7 °F 78% 30.07 in 10.0 mi NW 4.6 mph - N/A   Overcast
2:15 AM 58.1 °F 50.9 °F 77% 30.07 in 10.0 mi Calm Calm - N/A   Overcast
2:35 AM 57.4 °F 50.9 °F 79% 30.06 in 10.0 mi Calm Calm - N/A   Overcast
2:55 AM 57.2 °F 50.9 °F 79% 30.06 in 10.0 mi Calm Calm - N/A   Overcast
3:15 AM 56.5 °F 50.7 °F 81% 30.06 in 10.0 mi Calm Calm - N/A   Scattered Clouds
3:35 AM 56.3 °F 50.5 °F 81% 30.06 in 10.0 mi Calm Calm - N/A   Scattered Clouds
3:55 AM 55.6 °F 51.1 °F 85% 30.06 in 10.0 mi Calm Calm - N/A   Scattered Clouds
4:15 AM 56.7 °F 50.9 °F 81% 30.06 in 10.0 mi Calm Calm - N/A   Overcast
4:35 AM 57.2 °F 50.9 °F 79% 30.06 in 10.0 mi NNW 5.8 mph - N/A   Overcast
4:55 AM 57.4 °F 51.3 °F 80% 30.06 in 10.0 mi NW 5.8 mph - N/A   Overcast
5:15 AM 57.4 °F 51.3 °F 80% 30.07 in 10.0 mi West 3.5 mph - N/A   Overcast
5:35 AM 57.4 °F 51.6 °F 81% 30.07 in 10.0 mi Calm Calm - N/A   Overcast
5:55 AM 57.0 °F 52.0 °F 83% 30.08 in 7.0 mi Calm Calm - N/A   Overcast
6:15 AM 56.5 °F 53.4 °F 89% 30.08 in 7.0 mi NNW 3.5 mph - N/A   Overcast
6:35 AM 56.3 °F 53.6 °F 91% 30.08 in 10.0 mi Calm Calm - N/A   Overcast
6:55 AM 56.5 °F 53.6 °F 90% 30.09 in 10.0 mi Calm Calm - N/A   Overcast
7:35 AM 56.3 °F 53.6 °F 91% 30.10 in 10.0 mi Calm Calm - N/A   Overcast
7:55 AM 56.3 °F 53.6 °F 91% 30.10 in 10.0 mi Calm Calm - N/A   Overcast
8:15 AM 56.5 °F 53.6 °F 90% 30.10 in 10.0 mi Calm Calm - N/A   Overcast
8:35 AM 56.5 °F 53.8 °F 91% 30.11 in 10.0 mi Calm Calm - N/A   Overcast
8:55 AM 56.7 °F 54.1 °F 91% 30.12 in 10.0 mi Calm Calm - N/A   Overcast
9:15 AM 57.2 °F 53.6 °F 88% 30.12 in 10.0 mi Calm Calm - N/A   Overcast
9:35 AM 57.4 °F 53.8 °F 88% 30.12 in 10.0 mi NW 4.6 mph - N/A   Overcast
9:55 AM 58.1 °F 53.1 °F 83% 30.12 in 10.0 mi WNW 5.8 mph - N/A   Overcast
10:15 AM 58.3 °F 53.2 °F 83% 30.12 in 10.0 mi WNW 5.8 mph - N/A   Overcast
10:35 AM 58.3 °F 53.2 °F 83% 30.13 in 10.0 mi NNW 3.5 mph - N/A   Overcast
10:55 AM 59.2 °F 53.4 °F 81% 30.13 in 10.0 mi North 3.5 mph - N/A   Overcast
11:15 AM 59.9 °F 52.7 °F 77% 30.13 in 10.0 mi NNW 3.5 mph - N/A   Overcast
11:35 AM 59.7 °F 52.2 °F 76% 30.13 in 10.0 mi NNW 3.5 mph - N/A   Overcast
11:55 AM 60.6 °F 52.3 °F 74% 30.13 in 10.0 mi NW 4.6 mph - N/A   Overcast
12:15 PM 60.3 °F 51.8 °F 74% 30.13 in 10.0 mi WNW 4.6 mph - N/A   Overcast
12:35 PM 60.1 °F 51.8 °F 74% 30.13 in 10.0 mi NNW 3.5 mph - N/A   Overcast
12:55 PM 60.1 °F 52.7 °F 77% 30.13 in 10.0 mi Calm Calm - N/A   Overcast
1:15 PM 60.1 °F 52.9 °F 77% 30.13 in 10.0 mi Calm Calm - N/A   Overcast
1:35 PM 61.2 °F 52.7 °F 74% 30.12 in 10.0 mi West 5.8 mph - N/A   Overcast
1:55 PM 61.5 °F 52.7 °F 73% 30.12 in 10.0 mi West 4.6 mph - N/A   Overcast
2:15 PM 61.3 °F 52.3 °F 72% 30.12 in 10.0 mi NW 3.5 mph - N/A   Overcast
2:35 PM 61.7 °F 52.0 °F 70% 30.12 in 10.0 mi Calm Calm - N/A   Overcast
2:55 PM 62.1 °F 52.3 °F 70% 30.12 in 10.0 mi NNW 4.6 mph - N/A   Overcast
3:15 PM 63.1 °F 52.5 °F 68% 30.12 in 10.0 mi WNW 5.8 mph - N/A   Overcast
3:35 PM 63.5 °F 52.2 °F 67% 30.13 in 10.0 mi NNW 4.6 mph - N/A   Overcast
3:55 PM 62.6 °F 52.2 °F 69% 30.13 in 10.0 mi NNW 3.5 mph - N/A   Overcast
4:15 PM 62.6 °F 52.7 °F 70% 30.13 in 10.0 mi Calm Calm - N/A   Overcast
4:35 PM 62.8 °F 52.9 °F 70% 30.13 in 10.0 mi NNW 5.8 mph - N/A   Overcast
4:55 PM 62.4 °F 53.2 °F 72% 30.13 in 10.0 mi North 3.5 mph - N/A   Overcast
5:15 PM 62.6 °F 53.8 °F 73% 30.13 in 10.0 mi North 3.5 mph - N/A   Overcast
5:35 PM 62.6 °F 54.0 °F 73% 30.14 in 10.0 mi NW 3.5 mph - N/A   Overcast
5:55 PM 62.4 °F 53.4 °F 72% 30.14 in 10.0 mi Calm Calm - N/A   Overcast
6:15 PM 62.1 °F 53.6 °F 74% 30.15 in 10.0 mi Calm Calm - N/A   Overcast
6:35 PM 61.2 °F 53.8 °F 77% 30.15 in 10.0 mi Calm Calm - N/A   Overcast
6:55 PM 60.8 °F 54.0 °F 78% 30.15 in 10.0 mi North 3.5 mph - N/A   Overcast
7:15 PM 60.3 °F 54.5 °F 81% 30.16 in 10.0 mi North 3.5 mph - N/A   Overcast
7:35 PM 60.3 °F 54.3 °F 81% 30.16 in 10.0 mi Calm Calm - N/A   Overcast
7:55 PM 60.3 °F 54.0 °F 80% 30.17 in 10.0 mi NNW 3.5 mph - N/A   Overcast
8:15 PM 60.4 °F 53.8 °F 79% 30.17 in 10.0 mi Calm Calm - N/A   Overcast
8:35 PM 60.8 °F 53.2 °F 76% 30.17 in 10.0 mi Calm Calm - N/A   Overcast
8:55 PM 59.9 °F 53.8 °F 80% 30.17 in 10.0 mi Calm Calm - N/A   Overcast
9:15 PM 59.7 °F 53.6 °F 80% 30.17 in 10.0 mi Calm Calm - N/A   Overcast
9:35 PM 58.3 °F 54.7 °F 88% 30.17 in 10.0 mi ENE 3.5 mph - N/A   Mostly Cloudy
9:55 PM 58.1 °F 55.4 °F 91% 30.18 in 10.0 mi Calm Calm - N/A   Mostly Cloudy
10:15 PM 58.6 °F 55.0 °F 88% 30.18 in 10.0 mi North 4.6 mph - N/A   Overcast
10:35 PM 58.6 °F 54.9 °F 87% 30.18 in 10.0 mi Calm Calm - N/A   Overcast
10:55 PM 58.5 °F 55.0 °F 88% 30.18 in 10.0 mi Calm Calm - N/A   Overcast
11:15 PM 58.1 °F 55.4 °F 91% 30.18 in 10.0 mi Calm Calm - N/A   Overcast
11:35 PM 58.1 °F 55.6 °F 91% 30.18 in 10.0 mi Calm Calm - N/A   Overcast
11:55 PM 58.3 °F 55.6 °F 91% 30.18 in 10.0 mi Calm Calm - N/A   Overcast